Total_Precipitation_Accumulation
0.00 0.01 0.02 0.03 0.04 0.03 0.03 0.04 0.11 0.08 0.09 0.08 0.03 0.02 0.02 0.03 0.04 0.04 0.03 0.06 0.05 0.06 0.08 0.11 0.14 0.18 0.22 0.22 0.24 0.28 0.39 0.56 0.72 0.82 0.68 0.47 0.36 0.31 0.28 0.33 0.40 0.51 0.62 0.70
0.00 0.01 0.02 0.03 0.05 0.03 0.02 0.02 0.02 0.03 0.05 0.03 0.02 0.03 0.03 0.03 0.04 0.03 0.03 0.04 0.05 0.06 0.10 0.12 0.13 0.14 0.15 0.17 0.19 0.24 0.32 0.38 0.48 0.54 0.45 0.32 0.20 0.15 0.20 0.28 0.35 0.43 0.50 0.56
0.00 0.01 0.01 0.05 0.04 0.02 0.01 0.02 0.04 0.05 0.06 0.04 0.04 0.05 0.05 0.05 0.04 0.03 0.02 0.02 0.01 0.02 0.03 0.04 0.07 0.08 0.08 0.10 0.16 0.27 0.35 0.35 0.40 0.45 0.40 0.28 0.16 0.14 0.18 0.25 0.31 0.35 0.38 0.41
0.00 0.01 0.06 0.05 0.02 0.02 0.02 0.03 0.05 0.06 0.06 0.06 0.07 0.06 0.06 0.06 0.04 0.03 0.02 0.01 0.01 0.01 0.02 0.02 0.03 0.03 0.04 0.08 0.16 0.25 0.31 0.31 0.41 0.49 0.45 0.36 0.29 0.27 0.28 0.32 0.35 0.36 0.35 0.36
0.00 0.01 0.04 0.04 0.04 0.05 0.05 0.06 0.06 0.07 0.08 0.08 0.07 0.05 0.04 0.03 0.02 0.01 0.01 0.01 0.02 0.02 0.03 0.03 0.04 0.04 0.05 0.08 0.16 0.23 0.29 0.35 0.41 0.49 0.51 0.45 0.42 0.42 0.44 0.44 0.42 0.41 0.38 0.37
0.01 0.02 0.06 0.05 0.05 0.07 0.07 0.16 0.13 0.09 0.07 0.04 0.03 0.05 0.02 0.01 0.01 0.01 0.01 0.01 0.02 0.02 0.03 0.04 0.05 0.08 0.12 0.14 0.18 0.26 0.32 0.38 0.44 0.54 0.61 0.56 0.54 0.55 0.55 0.56 0.51 0.47 0.43 0.44
0.03 0.07 0.08 0.03 0.04 0.04 0.12 0.19 0.07 0.03 0.02 0.02 0.05 0.08 0.03 0.01 0.01 0.01 0.01 0.02 0.03 0.04 0.05 0.06 0.09 0.14 0.19 0.19 0.22 0.26 0.31 0.36 0.46 0.61 0.67 0.67 0.71 0.73 0.69 0.64 0.63 0.62 0.56 0.55
0.05 0.10 0.13 0.04 0.03 0.05 0.07 0.04 0.03 0.03 0.03 0.04 0.03 0.02 0.02 0.01 0.01 0.01 0.02 0.03 0.04 0.05 0.08 0.11 0.15 0.22 0.27 0.29 0.28 0.30 0.34 0.41 0.53 0.61 0.56 0.56 0.73 0.80 0.80 0.78 0.74 0.73 0.70 0.65
0.07 0.09 0.04 0.02 0.02 0.03 0.03 0.05 0.04 0.04 0.02 0.03 0.03 0.03 0.03 0.03 0.02 0.03 0.03 0.05 0.06 0.10 0.13 0.17 0.25 0.34 0.43 0.43 0.42 0.40 0.41 0.47 0.54 0.58 0.64 0.73 0.79 0.81 0.83 0.85 0.81 0.76 0.75 0.75
0.07 0.04 0.02 0.02 0.02 0.02 0.02 0.03 0.02 0.02 0.02 0.03 0.05 0.05 0.05 0.05 0.05 0.04 0.05 0.06 0.08 0.11 0.18 0.26 0.37 0.47 0.55 0.56 0.54 0.52 0.49 0.48 0.51 0.58 0.64 0.77 0.91 0.91 0.87 0.86 0.87 0.85 0.81 0.78
0.06 0.04 0.03 0.03 0.03 0.02 0.01 0.01 0.01 0.02 0.02 0.04 0.06 0.07 0.06 0.06 0.06 0.06 0.06 0.05 0.07 0.14 0.24 0.33 0.47 0.58 0.60 0.60 0.63 0.64 0.59 0.54 0.53 0.58 0.67 0.79 0.88 0.94 0.88 0.86 0.73 0.73 0.76 0.76
0.07 0.07 0.08 0.07 0.04 0.02 0.02 0.02 0.03 0.03 0.03 0.03 0.04 0.06 0.06 0.06 0.07 0.07 0.07 0.07 0.13 0.20 0.27 0.32 0.45 0.60 0.65 0.69 0.73 0.77 0.75 0.70 0.67 0.69 0.74 0.77 0.85 0.84 0.71 0.62 0.51 0.47 0.47 0.49
0.06 0.05 0.06 0.06 0.05 0.04 0.05 0.04 0.03 0.03 0.03 0.04 0.04 0.05 0.06 0.06 0.06 0.06 0.07 0.10 0.16 0.21 0.26 0.31 0.39 0.50 0.61 0.74 0.85 0.89 0.87 0.85 0.83 0.77 0.78 0.83 0.88 0.93 0.90 0.74 0.58 0.47 0.38 0.33
0.03 0.04 0.05 0.05 0.04 0.03 0.03 0.03 0.02 0.02 0.03 0.03 0.03 0.04 0.04 0.05 0.06 0.08 0.11 0.13 0.15 0.19 0.25 0.33 0.43 0.50 0.58 0.74 0.86 0.89 0.89 0.87 0.85 0.84 0.81 0.84 0.87 0.89 0.93 0.95 0.86 0.70 0.48 0.35
0.02 0.04 0.05 0.04 0.02 0.02 0.03 0.03 0.02 0.03 0.03 0.04 0.04 0.04 0.05 0.07 0.09 0.11 0.13 0.16 0.20 0.23 0.28 0.38 0.49 0.56 0.68 0.81 0.87 0.88 0.87 0.84 0.81 0.82 0.83 0.81 0.83 0.84 0.83 0.88 0.88 0.82 0.66 0.47
0.01 0.01 0.02 0.02 0.02 0.03 0.04 0.04 0.04 0.04 0.05 0.05 0.05 0.06 0.06 0.08 0.09 0.12 0.15 0.20 0.30 0.34 0.40 0.51 0.58 0.62 0.75 0.87 0.94 0.91 0.88 0.79 0.73 0.74 0.78 0.79 0.80 0.82 0.79 0.82 0.82 0.80 0.68 0.53
0.03 0.02 0.01 0.02 0.03 0.05 0.06 0.07 0.07 0.06 0.06 0.06 0.06 0.07 0.08 0.10 0.15 0.19 0.22 0.25 0.32 0.39 0.48 0.61 0.65 0.65 0.78 0.91 1.00 0.98 0.91 0.80 0.67 0.65 0.68 0.73 0.78 0.79 0.76 0.74 0.73 0.73 0.61 0.44
0.03 0.04 0.04 0.05 0.06 0.08 0.09 0.10 0.10 0.10 0.11 0.12 0.12 0.13 0.16 0.23 0.33 0.39 0.40 0.41 0.44 0.42 0.45 0.56 0.62 0.68 0.76 0.87 0.94 0.97 0.96 0.88 0.75 0.63 0.60 0.66 0.72 0.75 0.73 0.68 0.65 0.64 0.54 0.37
0.03 0.04 0.06 0.11 0.16 0.18 0.17 0.18 0.18 0.18 0.19 0.19 0.20 0.23 0.28 0.36 0.47 0.56 0.57 0.61 0.66 0.63 0.56 0.54 0.59 0.63 0.71 0.77 0.82 0.91 0.88 0.82 0.72 0.56 0.53 0.58 0.65 0.70 0.67 0.59 0.58 0.57 0.48 0.37
0.03 0.03 0.05 0.15 0.27 0.33 0.33 0.31 0.31 0.30 0.28 0.27 0.30 0.34 0.40 0.45 0.56 0.67 0.69 0.67 0.68 0.73 0.68 0.60 0.57 0.59 0.64 0.68 0.72 0.77 0.75 0.75 0.70 0.52 0.47 0.57 0.63 0.66 0.62 0.52 0.51 0.47 0.38 0.32
0.01 0.02 0.03 0.06 0.13 0.21 0.26 0.27 0.28 0.31 0.33 0.37 0.47 0.57 0.65 0.64 0.67 0.78 0.87 0.77 0.63 0.67 0.65 0.58 0.51 0.52 0.55 0.66 0.70 0.72 0.69 0.67 0.68 0.56 0.46 0.52 0.59 0.61 0.55 0.46 0.40 0.33 0.28 0.25
0.02 0.03 0.04 0.06 0.07 0.09 0.10 0.13 0.20 0.29 0.37 0.42 0.49 0.62 0.77 0.83 0.88 0.87 0.80 0.77 0.70 0.69 0.60 0.53 0.47 0.46 0.46 0.54 0.65 0.69 0.67 0.64 0.66 0.62 0.52 0.50 0.54 0.53 0.47 0.38 0.29 0.22 0.18 0.16
0.01 0.02 0.03 0.03 0.04 0.06 0.08 0.11 0.16 0.26 0.36 0.43 0.53 0.71 0.88 0.92 1.01 1.14 0.96 0.69 0.63 0.64 0.58 0.49 0.46 0.42 0.40 0.39 0.52 0.59 0.59 0.62 0.63 0.60 0.54 0.47 0.42 0.40 0.36 0.27 0.19 0.15 0.15 0.15
0.02 0.02 0.02 0.02 0.04 0.07 0.10 0.14 0.18 0.25 0.34 0.40 0.49 0.66 0.87 1.02 0.98 0.88 0.81 0.69 0.58 0.52 0.51 0.46 0.37 0.35 0.34 0.31 0.38 0.45 0.49 0.53 0.50 0.47 0.42 0.36 0.34 0.32 0.24 0.19 0.14 0.10 0.12 0.13
0.03 0.03 0.04 0.05 0.10 0.17 0.24 0.30 0.34 0.38 0.46 0.48 0.49 0.55 0.66 0.88 1.01 0.83 0.61 0.55 0.51 0.44 0.43 0.42 0.36 0.32 0.29 0.26 0.27 0.32 0.37 0.40 0.38 0.37 0.33 0.30 0.27 0.23 0.19 0.14 0.10 0.07 0.09 0.10
0.04 0.05 0.06 0.09 0.16 0.27 0.40 0.52 0.61 0.64 0.73 0.78 0.69 0.62 0.62 0.66 0.72 0.68 0.54 0.46 0.44 0.41 0.36 0.35 0.34 0.30 0.26 0.24 0.21 0.25 0.32 0.36 0.36 0.33 0.27 0.26 0.23 0.19 0.17 0.14 0.08 0.06 0.06 0.06
0.07 0.07 0.09 0.13 0.20 0.32 0.48 0.63 0.75 0.83 0.90 0.98 0.92 0.75 0.67 0.62 0.63 0.61 0.54 0.47 0.43 0.42 0.39 0.36 0.34 0.31 0.28 0.26 0.23 0.24 0.28 0.32 0.33 0.31 0.28 0.28 0.26 0.21 0.16 0.11 0.07 0.05 0.05 0.04